| time (UTC) | temp F | wind direction | speed knots | gust knots | rain 1hr in | rain 24hr in | rain mn in | humidity % | barometer mb |
| 20260831054505 | 66 | 214 | 0.9 | 4.3 | 0.00 | 0.00 | 0.00 | 66 | 1028.3 |
| 20260831052505 | 66 | 315 | 1.7 | 4.3 | 0.00 | 0.00 | 0.00 | 68 | 1028.4 |
| 20260831052006 | 66 | 127 | 0.9 | 2.6 | 0.00 | 0.00 | 0.00 | 69 | 1028.4 |
| 20260831051506 | 66 | 183 | 2.6 | 4.3 | 0.00 | 0.00 | 0.00 | 69 | 1028.4 |
| 20260831051006 | 66 | 340 | 1.7 | 4.3 | 0.00 | 0.00 | 0.00 | 69 | 1028.4 |
| 20260831050505 | 66 | 145 | 1.7 | 5.2 | 0.00 | 0.00 | 0.00 | 69 | 1028.5 |
| 20260831050006 | 66 | 202 | 0.9 | 2.6 | 0.00 | 0.00 | 0.00 | 70 | 1028.5 |
| 20260831045506 | 66 | 303 | 0.9 | 2.6 | 0.00 | 0.00 | 0.00 | 69 | 1028.5 |
| 20260831044505 | 66 | 275 | 0.9 | 4.3 | 0.00 | 0.00 | 0.00 | 70 | 1028.6 |
| 20260831043505 | 65 | 133 | 1.7 | 7.0 | 0.00 | 0.00 | 0.00 | 72 | 1028.7 |
| 20260831042506 | 65 | 144 | 1.7 | 6.1 | 0.00 | 0.00 | 0.00 | 72 | 1028.7 |
| 20260831042005 | 65 | 177 | 1.7 | 6.1 | 0.00 | 0.00 | 0.00 | 72 | 1028.7 |
| 20260831035006 | 65 | 166 | 2.6 | 5.2 | 0.00 | 0.00 | 0.00 | 74 | 1028.8 |
| 20260831034506 | 65 | 226 | 1.7 | 6.1 | 0.00 | 0.00 | 0.00 | 75 | 1028.9 |
| 20260831034005 | 65 | 225 | 2.6 | 5.2 | 0.00 | 0.00 | 0.00 | 74 | 1028.9 |
| 20260831033505 | 65 | 188 | 1.7 | 4.3 | 0.00 | 0.00 | 0.00 | 74 | 1029.0 |
| 20260831033005 | 65 | 340 | 1.7 | 5.2 | 0.00 | 0.00 | 0.00 | 73 | 1029.1 |
| 20260831030505 | 66 | 63 | 1.7 | 5.2 | 0.00 | 0.00 | 0.00 | 71 | 1029.3 |
| 20260831025005 | 65 | 339 | 0.9 | 4.3 | 0.00 | 0.00 | 0.00 | 71 | 1029.4 |
| 20260831024005 | 66 | 155 | 2.6 | 5.2 | 0.00 | 0.00 | 0.00 | 70 | 1029.5 |
| 20260831023506 | 67 | 246 | 1.7 | 2.6 | 0.00 | 0.00 | 0.00 | 69 | 1029.6 |
| 20260831023005 | 67 | 299 | 0.9 | 4.3 | 0.00 | 0.00 | 0.00 | 68 | 1029.7 |
| 20260831022505 | 67 | 359 | 1.7 | 4.3 | 0.00 | 0.00 | 0.00 | 68 | 1029.8 |
| 20260831021506 | 66 | 37 | 0.9 | 1.7 | 0.00 | 0.00 | 0.00 | 68 | 1030.0 |
| 20260831021005 | 66 | 207 | 1.7 | 4.3 | 0.00 | 0.00 | 0.00 | 69 | 1030.0 |
| 20260831015506 | 65 | 323 | 2.6 | 6.1 | 0.00 | 0.00 | 0.00 | 69 | 1030.2 |
| 20260831015005 | 65 | 212 | 1.7 | 2.6 | 0.00 | 0.00 | 0.00 | 69 | 1030.2 |
| 20260831014506 | 64 | 55 | 1.7 | 4.3 | 0.00 | 0.00 | 0.00 | 72 | 1030.3 |
| 20260831014005 | 64 | 88 | 1.7 | 4.3 | 0.00 | 0.00 | 0.00 | 72 | 1030.5 |
| 20260831013505 | 64 | 324 | 1.7 | 4.3 | 0.00 | 0.00 | 0.00 | 72 | 1030.5 |
| 20260831013006 | 64 | 318 | 2.6 | 4.3 | 0.00 | 0.00 | 0.00 | 73 | 1030.6 |
| 20260831012505 | 64 | 33 | 1.7 | 4.3 | 0.00 | 0.00 | 0.00 | 70 | 1030.7 |
| 20260831012006 | 64 | 88 | 0.9 | 2.6 | 0.00 | 0.00 | 0.00 | 69 | 1030.7 |
| 20260831011006 | 64 | 208 | 1.7 | 2.6 | 0.00 | 0.00 | 0.00 | 68 | 1030.7 |
| 20260831010505 | 64 | 25 | 2.6 | 2.6 | 0.00 | 0.00 | 0.00 | 69 | 1030.8 |
| 20260831010005 | 65 | 22 | 1.7 | 4.3 | 0.00 | 0.00 | 0.00 | 67 | 1030.9 |
| 20260831005505 | 65 | 346 | 1.7 | 4.3 | 0.00 | 0.00 | 0.00 | 67 | 1030.9 |
| 20260831004006 | 66 | 163 | 0.9 | 1.7 | 0.00 | 0.00 | 0.00 | 63 | 1031.0 |
| 20260831003505 | 67 | 279 | 1.7 | 4.3 | 0.00 | 0.00 | 0.00 | 63 | 1031.0 |
| 20260831003005 | 68 | 272 | 0.0 | 2.6 | 0.00 | 0.00 | 0.00 | 60 | 1031.0 |
| 20260831002505 | 67 | 286 | 1.7 | 2.6 | 0.00 | 0.00 | 0.00 | 61 | 1031.0 |
| 20260831002005 | 67 | 295 | 0.9 | 0.9 | 0.00 | 0.00 | 0.00 | 60 | 1031.0 |
| 20260831001005 | 65 | 165 | 0.9 | 1.7 | 0.00 | 0.00 | 0.00 | 62 | 1031.0 |
| 20260830235505 | 63 | 272 | 2.6 | 4.3 | 0.00 | 0.00 | 0.00 | 65 | 1030.9 |
| 20260830235005 | 63 | 279 | 2.6 | 4.3 | 0.00 | 0.00 | 0.00 | 66 | 1030.9 |
| 20260830234005 | 64 | 302 | 1.7 | 2.6 | 0.00 | 0.00 | 0.00 | 65 | 1030.9 |
| 20260830232006 | 61 | 277 | 0.0 | 1.7 | 0.00 | 0.00 | 0.00 | 67 | 1031.0 |
| 20260830230506 | 61 | 268 | 1.7 | 2.6 | 0.00 | 0.00 | 0.00 | 68 | 1030.9 |
| 20260830230005 | 61 | 307 | 2.6 | 4.3 | 0.00 | 0.00 | 0.00 | 69 | 1030.9 |
| 20260830224505 | 66 | 241 | 0.9 | 1.7 | 0.00 | 0.00 | 0.00 | 63 | 1031.0 |
| 20260830224005 | 67 | 242 | 0.0 | 1.7 | 0.00 | 0.00 | 0.00 | 61 | 1031.0 |
| 20260830223505 | 66 | 208 | 0.0 | 0.9 | 0.00 | 0.00 | 0.00 | 62 | 1031.0 |
| 20260830223005 | 67 | 263 | 0.0 | 0.0 | 0.00 | 0.00 | 0.00 | 61 | 1031.0 |
| 20260830222505 | 66 | 263 | 0.0 | 0.0 | 0.00 | 0.00 | 0.00 | 61 | 1031.0 |
| 20260830222006 | 65 | 263 | 0.0 | 0.0 | 0.00 | 0.00 | 0.00 | 62 | 1031.0 |
| 20260830220506 | 63 | 356 | 0.0 | 0.9 | 0.00 | 0.00 | 0.00 | 66 | 1030.9 |
| 20260830220005 | 63 | 256 | 0.9 | 1.7 | 0.00 | 0.00 | 0.00 | 64 | 1030.8 |
| 20260830215504 | 63 | 210 | 0.0 | 0.0 | 0.00 | 0.00 | 0.00 | 63 | 1030.7 |
| 20260830215006 | 63 | 218 | 0.9 | 1.7 | 0.00 | 0.00 | 0.00 | 64 | 1030.7 |
| 20260830214005 | 61 | 188 | 0.0 | 0.9 | 0.00 | 0.00 | 0.00 | 67 | 1030.6 |
| 20260830213505 | 61 | 174 | 0.0 | 0.9 | 0.00 | 0.00 | 0.00 | 67 | 1030.6 |
| 20260830212505 | 59 | 173 | 0.9 | 1.7 | 0.00 | 0.00 | 0.00 | 70 | 1030.5 |
| 20260830211005 | 57 | 248 | 0.0 | 1.7 | 0.00 | 0.00 | 0.00 | 75 | 1030.5 |
| 20260830210505 | 57 | 171 | 0.0 | 0.0 | 0.00 | 0.00 | 0.00 | 74 | 1030.4 |
| 20260830205005 | 55 | 181 | 0.0 | 0.9 | 0.00 | 0.00 | 0.00 | 78 | 1030.2 |
| 20260830204005 | 54 | 159 | 0.0 | 1.7 | 0.00 | 0.00 | 0.00 | 80 | 1030.1 |
| 20260830202504 | 54 | 161 | 0.0 | 0.9 | 0.00 | 0.00 | 0.00 | 84 | 1030.0 |
| 20260830202005 | 54 | 178 | 0.0 | 1.7 | 0.00 | 0.00 | 0.00 | 84 | 1030.0 |
| 20260830201504 | 54 | 189 | 0.9 | 1.7 | 0.00 | 0.00 | 0.00 | 85 | 1029.9 |
| 20260830201005 | 54 | 193 | 0.9 | 0.9 | 0.00 | 0.00 | 0.00 | 85 | 1029.8 |
| 20260830200505 | 54 | 157 | 0.0 | 1.7 | 0.00 | 0.00 | 0.00 | 85 | 1029.8 |
| 20260830193504 | 54 | 194 | 0.0 | 0.9 | 0.00 | 0.00 | 0.00 | 86 | 1029.6 |
| 20260830192505 | 54 | 190 | 0.0 | 0.9 | 0.00 | 0.00 | 0.00 | 87 | 1029.6 |
| 20260830191505 | 54 | 191 | 0.9 | 1.7 | 0.00 | 0.00 | 0.00 | 88 | 1029.5 |
| 20260830182505 | 55 | 202 | 0.0 | 0.9 | 0.00 | 0.00 | 0.00 | 91 | 1029.3 |
| 20260830182005 | 55 | 243 | 0.0 | 0.0 | 0.00 | 0.00 | 0.00 | 91 | 1029.3 |
| 20260830181505 | 55 | 264 | 0.0 | 0.0 | 0.00 | 0.00 | 0.00 | 91 | 1029.4 |
| 20260830180504 | 55 | 264 | 0.0 | 1.7 | 0.00 | 0.00 | 0.00 | 91 | 1029.4 |
| 20260830180005 | 55 | 251 | 0.0 | 0.0 | 0.00 | 0.00 | 0.00 | 91 | 1029.5 |
| 20260830175504 | 55 | 251 | 0.0 | 0.0 | 0.00 | 0.00 | 0.00 | 91 | 1029.5 |
| 20260830174004 | 55 | 251 | 0.0 | 0.0 | 0.00 | 0.00 | 0.00 | 90 | 1029.6 |
| 20260830173004 | 55 | 251 | 0.0 | 0.0 | 0.00 | 0.00 | 0.00 | 90 | 1029.6 |
| 20260830172504 | 55 | 251 | 0.0 | 0.0 | 0.00 | 0.00 | 0.00 | 90 | 1029.7 |
| 20260830172004 | 56 | 251 | 0.0 | 0.0 | 0.00 | 0.00 | 0.00 | 90 | 1029.7 |
| 20260830171505 | 56 | 251 | 0.0 | 0.0 | 0.00 | 0.00 | 0.00 | 90 | 1029.7 |
| 20260830170004 | 56 | 165 | 0.0 | 0.0 | 0.00 | 0.00 | 0.00 | 90 | 1029.7 |
| 20260830165505 | 56 | 165 | 0.0 | 0.0 | 0.00 | 0.00 | 0.00 | 89 | 1029.8 |
| 20260830165005 | 56 | 165 | 0.0 | 0.0 | 0.00 | 0.00 | 0.00 | 89 | 1029.9 |
| 20260830164505 | 56 | 165 | 0.0 | 0.0 | 0.00 | 0.00 | 0.00 | 89 | 1029.9 |
| 20260830164004 | 56 | 165 | 0.0 | 0.9 | 0.00 | 0.00 | 0.00 | 89 | 1029.9 |
| 20260830163004 | 56 | 144 | 0.0 | 0.0 | 0.00 | 0.00 | 0.00 | 88 | 1030.0 |
| 20260830162505 | 56 | 144 | 0.0 | 0.0 | 0.00 | 0.00 | 0.00 | 88 | 1030.0 |
| 20260830161504 | 57 | 144 | 0.0 | 0.0 | 0.00 | 0.00 | 0.00 | 88 | 1030.0 |
| 20260830155007 | 58 | 189 | 0.0 | 0.0 | 0.00 | 0.00 | 0.00 | 87 | 1030.1 |
| 20260830154507 | 58 | 189 | 0.0 | 0.0 | 0.00 | 0.00 | 0.00 | 87 | 1030.1 |
| 20260830154007 | 58 | 189 | 0.0 | 0.0 | 0.00 | 0.00 | 0.00 | 87 | 1030.2 |
| 20260830153506 | 58 | 189 | 0.0 | 0.9 | 0.00 | 0.00 | 0.00 | 87 | 1030.2 |
| 20260830152507 | 58 | 178 | 0.0 | 0.0 | 0.00 | 0.00 | 0.00 | 86 | 1030.1 |
| 20260830151506 | 59 | 178 | 0.0 | 0.9 | 0.00 | 0.00 | 0.00 | 86 | 1030.2 |
| 20260830151006 | 59 | 161 | 0.0 | 0.0 | 0.00 | 0.00 | 0.00 | 85 | 1030.2 |
| 20260830145007 | 59 | 176 | 0.0 | 0.9 | 0.00 | 0.00 | 0.00 | 85 | 1030.3 |
| 20260830144007 | 59 | 161 | 0.9 | 1.7 | 0.00 | 0.00 | 0.00 | 84 | 1030.4 |
| 20260830143506 | 59 | 172 | 0.0 | 1.7 | 0.00 | 0.00 | 0.00 | 84 | 1030.4 |
| 20260830141507 | 59 | 178 | 1.7 | 1.7 | 0.00 | 0.00 | 0.00 | 83 | 1030.4 |
| 20260830141006 | 59 | 175 | 1.7 | 2.6 | 0.00 | 0.00 | 0.00 | 82 | 1030.3 |
| 20260830135007 | 58 | 167 | 1.7 | 2.6 | 0.00 | 0.00 | 0.00 | 82 | 1030.4 |
| 20260830133507 | 59 | 183 | 2.6 | 4.3 | 0.00 | 0.00 | 0.00 | 83 | 1030.5 |
| 20260830132507 | 59 | 172 | 1.7 | 2.6 | 0.00 | 0.00 | 0.00 | 83 | 1030.4 |
| 20260830131506 | 59 | 180 | 1.7 | 2.6 | 0.00 | 0.00 | 0.00 | 83 | 1030.5 |
| 20260830131007 | 59 | 170 | 1.7 | 2.6 | 0.00 | 0.00 | 0.00 | 82 | 1030.5 |
| 20260830130506 | 59 | 177 | 1.7 | 2.6 | 0.00 | 0.00 | 0.00 | 82 | 1030.5 |
| 20260830125506 | 59 | 173 | 1.7 | 4.3 | 0.00 | 0.00 | 0.00 | 81 | 1030.5 |
| 20260830125007 | 59 | 150 | 1.7 | 2.6 | 0.00 | 0.00 | 0.00 | 81 | 1030.5 |
| 20260830124506 | 59 | 172 | 2.6 | 5.2 | 0.00 | 0.00 | 0.00 | 81 | 1030.5 |
| 20260830124007 | 59 | 171 | 2.6 | 5.2 | 0.00 | 0.00 | 0.00 | 81 | 1030.5 |
| 20260830123007 | 59 | 177 | 1.7 | 4.3 | 0.00 | 0.00 | 0.00 | 82 | 1030.5 |
| 20260830122506 | 59 | 169 | 1.7 | 4.3 | 0.00 | 0.00 | 0.00 | 84 | 1030.5 |
| 20260830121506 | 60 | 179 | 2.6 | 4.3 | 0.00 | 0.00 | 0.00 | 83 | 1030.5 |
| 20260830120006 | 60 | 270 | 0.0 | 0.0 | 0.00 | 0.00 | 0.00 | 78 | 1030.2 |
| 20260830115007 | 60 | 270 | 0.9 | 1.7 | 0.00 | 0.00 | 0.00 | 78 | 1030.2 |
| 20260830114506 | 60 | 272 | 1.7 | 2.6 | 0.00 | 0.00 | 0.00 | 78 | 1030.1 |
| 20260830112506 | 60 | 272 | 0.0 | 1.7 | 0.00 | 0.00 | 0.00 | 79 | 1030.1 |
| 20260830110007 | 60 | 265 | 1.7 | 1.7 | 0.00 | 0.00 | 0.00 | 80 | 1030.1 |
| 20260830105006 | 60 | 275 | 0.0 | 0.0 | 0.00 | 0.00 | 0.00 | 80 | 1030.0 |
| 20260830104006 | 60 | 275 | 0.0 | 0.0 | 0.00 | 0.00 | 0.00 | 80 | 1029.8 |
| 20260830103506 | 60 | 275 | 0.0 | 0.0 | 0.00 | 0.00 | 0.00 | 80 | 1029.9 |
| 20260830102506 | 60 | 268 | 0.0 | 0.0 | 0.00 | 0.00 | 0.00 | 80 | 1029.8 |
| 20260830102006 | 60 | 268 | 0.9 | 1.7 | 0.00 | 0.00 | 0.00 | 81 | 1029.7 |
| 20260830101006 | 60 | 271 | 0.0 | 1.7 | 0.00 | 0.00 | 0.00 | 82 | 1029.6 |
| 20260830100506 | 60 | 288 | 0.0 | 0.9 | 0.00 | 0.00 | 0.00 | 82 | 1029.6 |
| 20260830095506 | 60 | 315 | 0.0 | 0.9 | 0.00 | 0.00 | 0.00 | 82 | 1029.6 |
| 20260830095006 | 60 | 314 | 0.0 | 0.9 | 0.00 | 0.00 | 0.00 | 81 | 1029.6 |
| 20260830092006 | 61 | 103 | 0.0 | 0.9 | 0.00 | 0.00 | 0.00 | 80 | 1029.4 |
| 20260830091506 | 61 | 94 | 0.9 | 1.7 | 0.00 | 0.00 | 0.00 | 79 | 1029.4 |
| 20260830091005 | 61 | 119 | 0.9 | 1.7 | 0.00 | 0.00 | 0.00 | 78 | 1029.3 |
| 20260830090506 | 61 | 312 | 0.0 | 1.7 | 0.00 | 0.00 | 0.00 | 78 | 1029.3 |
| 20260830090006 | 61 | 177 | 0.9 | 2.6 | 0.00 | 0.00 | 0.00 | 78 | 1029.3 |
| 20260830085006 | 61 | 111 | 0.0 | 1.7 | 0.00 | 0.00 | 0.00 | 77 | 1029.2 |
| 20260830080505 | 62 | 156 | 2.6 | 5.2 | 0.00 | 0.00 | 0.00 | 73 | 1028.8 |
| 20260830075505 | 62 | 144 | 4.3 | 5.2 | 0.00 | 0.00 | 0.00 | 72 | 1028.7 |
| 20260830075006 | 62 | 176 | 2.6 | 4.3 | 0.00 | 0.00 | 0.00 | 72 | 1028.7 |
| 20260830073006 | 62 | 175 | 2.6 | 2.6 | 0.00 | 0.00 | 0.00 | 72 | 1028.7 |
| 20260830072006 | 63 | 137 | 1.7 | 2.6 | 0.00 | 0.00 | 0.00 | 72 | 1028.6 |
| 20260830065505 | 64 | 334 | 0.9 | 2.6 | 0.00 | 0.00 | 0.00 | 69 | 1028.4 |
| 20260830063506 | 64 | 356 | 1.7 | 4.3 | 0.00 | 0.00 | 0.00 | 70 | 1028.5 |
| 20260830063006 | 64 | 315 | 0.9 | 1.7 | 0.00 | 0.00 | 0.00 | 70 | 1028.5 |
| 20260830062506 | 64 | 328 | 1.7 | 2.6 | 0.00 | 0.00 | 0.00 | 70 | 1028.5 |
| 20260830061506 | 64 | 13 | 1.7 | 2.6 | 0.00 | 0.00 | 0.00 | 69 | 1028.5 |
| 20260830060506 | 64 | 336 | 1.7 | 2.6 | 0.00 | 0.00 | 0.00 | 69 | 1028.5 |
| 20260830060006 | 64 | 323 | 1.7 | 2.6 | 0.00 | 0.00 | 0.00 | 69 | 1028.5 |